User: anonymous   Login
Location: Im Fang
(46.6019°N, 7.2397°E)
Time: 22:18:30
(UTC+00:00)
Language:

Oscar 11 - Orbit

View from above orbital plane
View from above orbital plane
View from above satellite
View from above satellite

Ground track
Ground track

The orbit data is extracted from the following two-line orbital elements,

1 14781U 84021B   21125.01778227  .00000107  00000-0  19194-4 0  9997
2 14781  97.5930 126.9988 0007420 215.8755 144.1962 14.83279175   492
Epoch (UTC): 05 May 2021 00:25:36
Eccentricity: 0.0007420
inclination: 97.5930°
perigee height: 614 km
apogee height: 624 km
right ascension of ascending node: 126.9988°
argument of perigee: 215.8755°
revolutions per day: 14.83279175
mean anomaly at epoch: 144.1962°
orbit number at epoch: 49

The dashed part of the orbit path shows where the satellite is in the earth's shadow,  

DLR